Hourly Data Report for January 20, 2012

HALIFAX STANFIELD INT'L A
NOVA SCOTIA

44°52'48.060" N
63°30'00.050" W
145.40 m
8202250
71395
YHZ

Download Data

Hourly Data (January 2012)
Hourly Data Report for January 20, 2012
TIME
LST
Temp Definition
°C
Dew Point Definition
°C
Rel Hum Definition
%
Precip. Amount Definition
mm

Wind Dir Definition
10's deg

Wind Spd Definition
km/h
Visibility Definition
km
Stn Press Definition
kPa
Hmdx Definition


Wind Chill Definition


Weather Definition


00:00 -11.1 -13.3 84   35 7 24.1 100.45   -15 Cloudy
01:00 -10.5 -12.5 85   35 9 24.1 100.45   -15 Cloudy
02:00 -11.2 -12.8 88   4 9 24.1 100.32   -16 Clear
03:00 -10.2 -12.1 86   36 7 24.1 100.27   -14 Clear
04:00 -10.5 -12.0 89   34 6 24.1 100.28   -14 Mostly Cloudy
05:00 -9.9 -11.4 89   35 7 24.1 100.27   -14 Cloudy
06:00 -9.6 -11.0 90   33 7 24.1 100.26   -14 Cloudy
07:00 -9.3 -10.8 89   36 4 24.1 100.22   -12 Mostly Cloudy
08:00 -8.3 -10.4 85   10 17 24.1 100.23   -15 Mainly Clear
09:00 -6.6 -9.3 81   10 22 24.1 100.20   -14 Mostly Cloudy
10:00 -5.9 -8.4 82   10 20 24.1 100.14   -13 Cloudy
11:00 -3.6 -6.3 82   11 24 24.1 100.03   -10 Cloudy
12:00 -2.6 -5.4 81   12 24 24.1 99.92   -9 Cloudy
13:00 -2.6 -5.0 84   12 22 6.4 99.82   -9 Snow
14:00 -2.1 -3.2 92   12 20 1.2 99.67   -8 Snow
15:00 -1.6 -2.3 95   11 20 0.8 99.56   -7 Moderate Snow
16:00 -1.2 -1.7 96   11 26 0.8 99.46   -8 Moderate Snow
17:00 -0.2 -0.4 99   14 28 0.8 99.43   -7 Moderate Snow
18:00 -0.1 -0.2 99   16 17 1.2 99.46   -5 Snow
19:00 -0.2 -0.3 99   22 7 3.2 99.46   -3 Fog
20:00 -1.6 -2.1 96   27 9 24.1 99.52   -5 Mainly Clear
21:00 -3.3 -4.7 90   26 22 24.1 99.60   -10 Mainly Clear
22:00 -3.8 -5.8 86   26 30 24.1 99.68   -11 Mostly Cloudy
23:00 -4.7 -6.3 89   28 24 24.1 99.76   -12 Snow Showers

Notes on Data Quality.

Legend

  • E = Estimated
  • M = Missing
  • NA = Not Available*
  • [empty] = Indicates an unobserved value
Date modified: